Vertical_Velocity
-4 -4 -4 -6 -3 9 26 21 17 -2 -2 13 6 -2 0 1 1 -0 -5 1 -3 -1 1 -1 1 -6 -4 1 -0 -8 -4 8 -3 -25 0 11 1 -4 6 2 -3 -1 3 -57
-1 -1 -7 -7 -3 16 -6 19 4 7 1 -2 10 -5 2 -3 -2 -0 -1 -4 1 2 -3 -2 2 -1 4 3 2 1 -3 -1 2 -0 5 -0 -5 -6 5 9 6 -7 2 -18
-1 -2 -5 2 -7 -3 14 5 14 14 23 17 -5 -1 2 -1 -3 -1 -1 -1 2 -0 -3 -3 -1 -5 2 4 -0 3 5 2 -10 -11 -6 1 1 -5 5 1 7 -12 -22 -11
1 -1 -5 -13 -7 2 2 6 9 -8 -12 -6 -1 2 1 -5 -0 2 -2 1 -1 -1 3 -4 -10 -2 6 2 -1 -8 7 -6 6 -4 3 10 -1 1 2 -1 -7 -7 -4 -13
1 -3 -6 0 -1 14 9 -2 -6 -7 1 -1 4 4 -1 -6 -8 4 -3 -3 4 2 0 -7 -2 2 1 3 0 1 1 -14 4 -3 1 1 -1 1 2 1 3 3 1 -38
2 5 1 -9 -3 2 3 11 11 7 -0 -1 1 -8 -1 -3 4 2 1 -3 -1 -3 -9 3 -1 -0 8 -0 4 8 9 4 6 -9 2 10 22 -15 -0 -2 -9 5 -20 -13
-4 -2 1 -3 4 1 -7 7 -1 6 -4 -0 -1 -2 -3 -5 0 1 3 -0 1 -3 -3 5 3 -4 -2 -2 1 2 -3 15 7 -9 5 4 -4 9 0 -7 -3 -4 -11 -13
3 -2 4 0 -4 -6 -2 9 4 9 -2 6 4 -9 -1 0 2 -2 -2 -3 -2 3 -7 8 5 -3 -1 -2 0 -4 8 16 -3 1 3 -7 -0 0 4 -17 -16 -5 -15 -2
-2 -4 -1 2 4 5 3 -4 11 8 0 -13 11 -6 -3 -1 3 3 -2 -0 -2 -1 6 6 1 -1 -4 -2 -0 -4 3 5 11 -3 2 1 2 1 -3 -2 -9 -1 -1 -1
3 2 -2 1 0 -4 -3 -1 5 10 8 1 -4 -7 -6 2 -2 -1 -2 2 2 2 1 8 -2 -3 -1 -3 -1 -2 -4 1 -1 -1 0 5 -4 -0 -2 -7 1 1 1 4
-5 -3 1 1 0 -1 -5 6 5 7 0 -2 -2 -5 -6 -1 0 2 -2 -2 -1 7 6 3 -6 -2 -1 -1 -1 -0 -1 1 -1 1 1 -2 -1 -2 -3 4 -1 1 -4 -1
-6 -0 -5 -1 1 3 3 2 2 -2 8 0 2 -0 0 1 -1 -2 2 -2 4 0 5 -0 -4 -1 -1 3 -2 1 -2 -5 -3 -0 3 4 1 -1 -4 3 -0 2 2 -1
-2 -6 3 3 3 -1 -1 2 4 8 1 -2 -0 1 -0 -1 -0 -2 -2 -4 3 1 3 16 3 -2 2 -2 -3 1 1 2 -3 -3 4 1 1 1 2 1 1 0 -3 1
-6 -4 -7 -2 1 3 -3 5 3 3 -6 -3 0 1 -1 -1 0 -0 2 1 2 3 6 6 3 -4 -4 0 0 -1 0 -1 1 2 -4 2 -1 -1 2 0 -1 3 2 0
-4 -5 -5 -2 -2 -1 1 4 5 2 -1 -4 -4 -1 -1 -2 -2 1 -1 -0 2 1 4 -1 -7 -2 5 -1 -3 -6 2 -1 -1 3 1 -1 -2 -2 0 -0 -1 0 1 1
-0 -5 2 -5 -3 2 2 10 7 -0 1 -3 3 -3 -3 -2 1 1 -2 1 3 0 2 1 5 -0 3 2 -3 -2 -1 -5 -3 -1 3 3 1 -3 1 0 -1 -2 -0 -1
0 -2 -3 -0 -6 -1 -0 5 -5 2 2 -6 -5 -3 -1 -3 -0 0 -2 3 1 4 0 2 -7 -4 7 -3 -8 4 4 -3 -2 -0 0 -1 -1 1 0 1 1 -1 -1 -0
2 -3 -5 -1 -5 3 5 2 -1 -3 0 -0 -2 -3 -2 -0 1 1 -1 1 -1 7 1 1 12 2 -0 -11 -3 -4 -0 -0 -1 2 0 0 -1 -1 -2 -1 -0 0 1 1
2 -1 -3 3 2 -0 1 1 1 2 10 -4 -10 -3 0 -1 2 0 2 -0 -2 3 0 -2 1 2 -14 -1 -0 3 2 0 1 2 1 0 -1 1 0 -0 -0 0 -4 -3
-0 2 -4 3 -2 -1 10 11 -7 7 3 -3 -4 1 -5 -0 -1 2 -1 -1 -3 0 3 -0 -4 -22 1 -0 0 -1 -0 -2 -1 -0 -0 -1 -1 1 -2 1 2 1 2 -1
3 -2 -0 -4 -0 12 6 5 -1 -4 8 -5 -8 -2 1 -0 3 2 -2 -1 -2 -0 -0 -2 -1 -17 2 -1 -3 -2 0 0 -2 -4 -5 -4 3 4 2 -2 -2 -2 -1 1
-0 -3 -1 1 -5 11 8 8 3 2 -3 1 -2 4 6 0 1 1 1 -2 -0 -1 0 -1 -4 -1 -1 -2 0 -3 -1 -1 0 1 0 1 -1 -3 1 1 1 0 -0 0
-1 -0 -0 -0 5 8 8 2 3 1 -6 -7 -4 -0 1 4 2 -2 -2 -1 -1 -1 -1 -3 -0 1 0 3 2 4 4 -0 0 0 1 1 2 -2 -0 1 0 1 2 -0
-4 -3 -3 3 5 13 10 5 0 2 -0 2 6 4 2 2 -4 1 -1 0 -1 -1 -2 -4 1 -0 2 1 1 2 3 3 3 2 1 2 1 1 1 -0 4 3 1 1
-8 0 0 -4 -4 1 0 4 3 1 1 1 5 4 3 0 0 -2 -1 -1 -2 -2 -1 -1 -1 1 1 -0 -0 -1 1 2 4 4 3 2 2 1 2 1 1 -0 -0 1
-2 -3 -0 -2 -0 -5 -9 -8 -1 3 6 3 10 4 -0 -1 -0 -1 -4 -1 -6 1 -2 2 -0 -1 -1 0 1 1 0 1 2 2 2 4 4 2 2 1 0 -1 -0 -0
-2 0 4 2 0 -0 1 1 -1 5 4 6 10 1 -4 6 -1 -5 -9 -25 -1 2 -0 2 3 0 -2 -2 -0 0 0 0 0 0 1 2 3 2 2 1 1 -0 -1 -0
Height
2939 2932 2930 2928 2925 2921 2920 2918 2923 2929 2933 2944 2950 2956 2964 2969 2974 2978 2983 2986 2988 2990 2992 2993 2995 2992 2995 2995 2996 2996 2996 2996 2992 2990 2992 2992 2991 2992 2994 2994 2991 2990 2988 2964
2935 2928 2928 2928 2923 2921 2919 2921 2926 2931 2937 2943 2948 2956 2963 2967 2972 2977 2981 2984 2986 2987 2990 2993 2990 2990 2992 2992 2993 2993 2992 2991 2989 2985 2986 2984 2981 2982 2985 2988 2988 2983 2985 2962
2933 2927 2924 2924 2920 2917 2918 2921 2926 2931 2938 2941 2950 2955 2961 2966 2971 2975 2978 2981 2983 2985 2986 2988 2987 2987 2989 2989 2989 2989 2988 2984 2981 2977 2975 2974 2973 2974 2977 2981 2978 2976 2969 2965
2932 2926 2923 2921 2919 2920 2922 2925 2926 2929 2936 2944 2951 2956 2962 2967 2970 2974 2976 2978 2980 2982 2984 2984 2984 2985 2986 2986 2986 2985 2982 2975 2973 2967 2966 2967 2967 2968 2969 2968 2972 2972 2961 2970
2930 2926 2922 2921 2921 2920 2924 2927 2930 2935 2939 2945 2952 2957 2961 2966 2970 2972 2975 2976 2979 2980 2980 2982 2982 2982 2982 2982 2981 2979 2977 2969 2965 2957 2956 2957 2955 2957 2960 2961 2963 2960 2966 2961
2929 2926 2925 2923 2920 2922 2925 2928 2930 2938 2941 2946 2951 2954 2960 2967 2969 2971 2973 2975 2976 2976 2977 2977 2978 2977 2978 2978 2978 2976 2973 2967 2964 2954 2951 2945 2951 2943 2947 2955 2955 2957 2958 2951
2930 2927 2926 2926 2925 2926 2927 2930 2930 2936 2941 2945 2950 2956 2962 2965 2968 2970 2972 2973 2974 2976 2974 2974 2973 2973 2973 2974 2973 2972 2969 2966 2963 2955 2951 2944 2940 2938 2939 2943 2948 2952 2952 2951
2929 2926 2924 2925 2927 2927 2929 2931 2933 2938 2941 2945 2951 2957 2961 2964 2965 2967 2970 2971 2972 2973 2972 2970 2970 2971 2970 2968 2966 2966 2967 2964 2963 2958 2950 2946 2941 2938 2939 2939 2942 2947 2948 2951
2928 2926 2925 2924 2925 2927 2929 2933 2935 2936 2941 2944 2952 2956 2959 2961 2963 2965 2965 2968 2968 2969 2968 2967 2967 2968 2968 2966 2965 2963 2963 2965 2965 2959 2956 2952 2947 2943 2942 2943 2944 2942 2942 2951
2928 2925 2924 2924 2925 2927 2930 2933 2935 2937 2940 2944 2949 2953 2957 2960 2961 2963 2963 2964 2963 2963 2963 2964 2965 2966 2966 2966 2964 2963 2963 2963 2962 2961 2958 2953 2949 2948 2946 2948 2953 2949 2952 2955
2926 2922 2921 2922 2924 2925 2929 2931 2933 2936 2941 2944 2949 2952 2956 2958 2959 2960 2961 2962 2959 2959 2959 2960 2962 2962 2963 2963 2963 2962 2962 2962 2961 2959 2957 2956 2952 2952 2952 2953 2951 2953 2956 2959
2924 2921 2920 2919 2921 2922 2926 2930 2933 2936 2940 2945 2948 2951 2953 2955 2956 2957 2957 2959 2957 2957 2958 2958 2960 2960 2960 2960 2960 2959 2961 2962 2960 2960 2958 2957 2956 2955 2955 2955 2953 2953 2956 2959
2921 2918 2916 2916 2917 2919 2922 2926 2931 2935 2939 2944 2947 2949 2950 2952 2953 2954 2955 2954 2953 2953 2955 2954 2957 2958 2959 2959 2957 2957 2958 2959 2958 2958 2957 2957 2957 2957 2957 2957 2955 2955 2958 2961
2917 2914 2912 2912 2913 2916 2920 2924 2930 2935 2939 2942 2945 2945 2947 2949 2950 2950 2951 2951 2949 2949 2951 2952 2953 2956 2957 2956 2957 2956 2957 2957 2956 2955 2955 2956 2957 2957 2958 2958 2958 2959 2960 2962
2913 2909 2908 2908 2909 2913 2917 2923 2929 2933 2940 2940 2941 2943 2945 2946 2946 2947 2947 2947 2946 2946 2947 2947 2949 2951 2955 2954 2953 2951 2954 2955 2956 2954 2954 2955 2956 2958 2959 2960 2961 2962 2963 2965
2907 2904 2902 2903 2905 2909 2916 2922 2925 2929 2933 2938 2940 2941 2942 2943 2943 2943 2945 2944 2942 2942 2943 2945 2945 2946 2952 2950 2946 2947 2950 2950 2952 2953 2954 2954 2955 2958 2960 2962 2963 2964 2965 2967
2903 2899 2896 2897 2900 2905 2911 2918 2921 2927 2932 2936 2939 2938 2939 2939 2940 2941 2942 2942 2941 2939 2940 2941 2942 2944 2945 2943 2940 2943 2945 2946 2948 2950 2952 2953 2955 2957 2959 2961 2963 2965 2966 2968
2898 2894 2892 2892 2896 2901 2910 2915 2919 2925 2931 2934 2936 2936 2937 2937 2937 2939 2941 2940 2938 2937 2938 2938 2938 2940 2941 2937 2938 2937 2937 2942 2944 2947 2949 2951 2953 2956 2958 2960 2962 2964 2965 2967
2893 2889 2888 2889 2894 2901 2907 2915 2919 2924 2930 2930 2932 2934 2936 2936 2937 2938 2939 2939 2938 2937 2935 2936 2938 2935 2934 2934 2935 2934 2933 2936 2940 2942 2946 2948 2951 2953 2956 2959 2960 2962 2964 2966
2889 2887 2887 2890 2894 2902 2909 2916 2919 2922 2924 2927 2927 2930 2934 2937 2936 2936 2939 2938 2937 2935 2935 2934 2932 2926 2929 2932 2933 2933 2934 2936 2937 2939 2942 2946 2949 2952 2955 2957 2959 2962 2964 2967
2889 2887 2888 2890 2894 2902 2908 2912 2916 2918 2919 2920 2921 2927 2931 2934 2935 2936 2937 2936 2936 2934 2934 2932 2927 2922 2925 2927 2930 2932 2934 2935 2937 2939 2940 2944 2948 2950 2952 2955 2957 2960 2963 2965
2889 2889 2891 2894 2898 2902 2905 2907 2910 2912 2916 2915 2917 2922 2927 2932 2934 2935 2936 2936 2935 2932 2931 2929 2922 2920 2921 2923 2926 2929 2932 2934 2936 2938 2941 2943 2946 2948 2951 2954 2956 2959 2961 2964
2894 2895 2896 2898 2900 2899 2900 2902 2906 2908 2910 2913 2916 2921 2924 2928 2932 2934 2934 2933 2932 2931 2928 2923 2919 2918 2917 2920 2923 2926 2929 2932 2934 2937 2939 2941 2944 2946 2950 2953 2955 2958 2960 2962
2900 2899 2899 2899 2898 2898 2900 2903 2905 2908 2912 2913 2916 2919 2922 2925 2928 2931 2931 2930 2929 2926 2922 2918 2917 2916 2917 2918 2919 2921 2925 2928 2931 2934 2937 2940 2942 2945 2948 2950 2954 2956 2958 2960
2902 2902 2901 2901 2901 2900 2901 2902 2903 2907 2910 2912 2915 2919 2922 2923 2926 2926 2927 2926 2923 2919 2916 2917 2916 2915 2915 2916 2917 2919 2921 2923 2926 2930 2934 2937 2940 2943 2946 2948 2951 2954 2956 2959
2902 2902 2901 2901 2901 2900 2902 2903 2904 2906 2908 2911 2915 2917 2919 2920 2920 2919 2919 2919 2916 2915 2916 2916 2916 2916 2915 2915 2915 2917 2918 2920 2923 2927 2931 2934 2938 2941 2944 2946 2949 2952 2954 2957
2901 2901 2900 2900 2900 2901 2901 2902 2903 2903 2905 2908 2910 2910 2912 2912 2911 2910 2910 2910 2914 2914 2914 2914 2914 2914 2914 2914 2914 2914 2916 2918 2920 2923 2928 2932 2935 2938 2941 2945 2948 2950 2953 2956